| time (UTC) | temp F | wind direction | speed MPH | gust MPH | rain 1hr in | rain 24hr in | rain mn in | humidity % | barometer mb |
| 20260906225517 | 99 | 109 | 3.0 | 9.0 | 0.00 | 0.00 | 0.00 | 44 | 1012.3 |
| 20260906224517 | 100 | 109 | 5.0 | 12.0 | 0.00 | 0.00 | 0.00 | 44 | 1012.2 |
| 20260906223537 | 100 | 106 | 6.0 | 14.0 | 0.00 | 0.00 | 0.00 | 43 | 1012.2 |
| 20260906222517 | 100 | 104 | 5.0 | 11.0 | 0.00 | 0.00 | 0.00 | 45 | 1012.2 |
| 20260906221518 | 100 | 106 | 3.0 | 12.0 | 0.00 | 0.00 | 0.00 | 44 | 1012.2 |
| 20260906220517 | 101 | 110 | 5.0 | 12.0 | 0.00 | 0.00 | 0.00 | 44 | 1012.3 |
| 20260906215517 | 100 | 106 | 2.0 | 10.0 | 0.00 | 0.00 | 0.00 | 46 | 1012.4 |
| 20260906214537 | 100 | 109 | 6.0 | 12.0 | 0.00 | 0.00 | 0.00 | 45 | 1012.5 |
| 20260906213517 | 100 | 114 | 5.0 | 15.0 | 0.00 | 0.00 | 0.00 | 45 | 1012.6 |
| 20260906212518 | 100 | 109 | 2.0 | 8.0 | 0.00 | 0.00 | 0.00 | 45 | 1012.7 |
| 20260906211516 | 101 | 105 | 5.0 | 13.0 | 0.00 | 0.00 | 0.00 | 45 | 1012.7 |
| 20260906210538 | 101 | 105 | 1.0 | 10.0 | 0.00 | 0.00 | 0.00 | 44 | 1012.9 |
| 20260906205518 | 101 | 110 | 4.0 | 10.0 | 0.00 | 0.00 | 0.00 | 45 | 1013.0 |
| 20260906204557 | 101 | 103 | 4.0 | 13.0 | 0.00 | 0.00 | 0.00 | 44 | 1013.2 |
| 20260906203518 | 101 | 116 | 3.0 | 11.0 | 0.00 | 0.00 | 0.00 | 45 | 1013.2 |
| 20260906202537 | 100 | 122 | 2.0 | 10.0 | 0.00 | 0.00 | 0.00 | 45 | 1013.2 |
| 20260906201517 | 99 | 101 | 4.0 | 12.0 | 0.00 | 0.00 | 0.00 | 47 | 1013.5 |
| 20260906200517 | 98 | 105 | 2.0 | 11.0 | 0.00 | 0.00 | 0.00 | 47 | 1013.7 |
| 20260906195517 | 99 | 102 | 4.0 | 9.0 | 0.00 | 0.00 | 0.00 | 46 | 1013.7 |
| 20260906194517 | 100 | 103 | 4.0 | 12.0 | 0.00 | 0.00 | 0.00 | 47 | 1013.9 |
| 20260906193517 | 100 | 111 | 3.0 | 10.0 | 0.00 | 0.00 | 0.00 | 47 | 1014.0 |
| 20260906192517 | 99 | 107 | 3.0 | 11.0 | 0.00 | 0.00 | 0.00 | 48 | 1014.1 |
| 20260906191517 | 98 | 115 | 1.0 | 7.0 | 0.00 | 0.00 | 0.00 | 49 | 1014.2 |
| 20260906190517 | 98 | 98 | 4.0 | 11.0 | 0.00 | 0.00 | 0.00 | 48 | 1014.3 |
| 20260906185517 | 99 | 106 | 4.0 | 10.0 | 0.00 | 0.00 | 0.00 | 46 | 1014.5 |
| 20260906184517 | 99 | 138 | 1.0 | 7.0 | 0.00 | 0.00 | 0.00 | 49 | 1014.6 |
| 20260906183537 | 98 | 106 | 1.0 | 13.0 | 0.00 | 0.00 | 0.00 | 49 | 1014.8 |
| 20260906182517 | 98 | 119 | 3.0 | 12.0 | 0.00 | 0.00 | 0.00 | 50 | 1014.8 |
| 20260906181537 | 98 | 107 | 1.0 | 6.0 | 0.00 | 0.00 | 0.00 | 51 | 1014.9 |
| 20260906180537 | 96 | 95 | 1.0 | 10.0 | 0.00 | 0.00 | 0.00 | 52 | 1015.1 |
| 20260906175517 | 97 | 106 | 6.0 | 12.0 | 0.00 | 0.00 | 0.00 | 52 | 1015.3 |
| 20260906174517 | 97 | 110 | 3.0 | 11.0 | 0.00 | 0.00 | 0.00 | 52 | 1015.4 |
| 20260906173517 | 96 | 105 | 4.0 | 9.0 | 0.00 | 0.00 | 0.00 | 54 | 1015.6 |
| 20260906172517 | 94 | 169 | 0.0 | 9.0 | 0.00 | 0.00 | 0.00 | 57 | 1015.8 |
| 20260906171517 | 95 | 106 | 5.0 | 10.0 | 0.00 | 0.00 | 0.00 | 56 | 1016.0 |
| 20260906170537 | 95 | 115 | 1.0 | 5.0 | 0.00 | 0.00 | 0.00 | 55 | 1016.1 |
| 20260906165517 | 95 | 130 | 0.0 | 9.0 | 0.00 | 0.00 | 0.00 | 57 | 1016.3 |
| 20260906164517 | 94 | 120 | 2.0 | 11.0 | 0.00 | 0.00 | 0.00 | 57 | 1016.4 |
| 20260906163517 | 94 | 122 | 1.0 | 4.0 | 0.00 | 0.00 | 0.00 | 59 | 1016.4 |
| 20260906162517 | 93 | 123 | 1.0 | 4.0 | 0.00 | 0.00 | 0.00 | 62 | 1016.4 |
| 20260906161517 | 92 | 126 | 1.0 | 8.0 | 0.00 | 0.00 | 0.00 | 63 | 1016.4 |
| 20260906160537 | 92 | 128 | 0.0 | 8.0 | 0.00 | 0.00 | 0.00 | 63 | 1016.4 |
| 20260906155517 | 92 | 130 | 0.0 | 1.0 | 0.00 | 0.00 | 0.00 | 66 | 1016.2 |
| 20260906154517 | 92 | 121 | 0.0 | 4.0 | 0.00 | 0.00 | 0.00 | 64 | 1016.2 |
| 20260906153517 | 93 | 123 | 0.0 | 2.0 | 0.00 | 0.00 | 0.00 | 65 | 1016.2 |
| 20260906152517 | 91 | 126 | 0.0 | 3.0 | 0.00 | 0.00 | 0.00 | 67 | 1016.2 |
| 20260906151517 | 91 | 123 | 0.0 | 1.0 | 0.00 | 0.00 | 0.00 | 68 | 1016.0 |
| 20260906150517 | 91 | 0.0 | 1.0 | 0.00 | 0.00 | 0.00 | 68 | 1016.1 | |
| 20260906145517 | 91 | 136 | 0.0 | 1.0 | 0.00 | 0.00 | 0.00 | 69 | 1016.2 |
| 20260906144517 | 90 | 0.0 | 1.0 | 0.00 | 0.00 | 0.00 | 71 | 1016.1 | |
| 20260906143517 | 89 | 0.0 | 0.0 | 0.00 | 0.00 | 0.00 | 72 | 1016.1 | |
| 20260906142517 | 88 | 0.0 | 1.0 | 0.00 | 0.00 | 0.00 | 73 | 1016.0 | |
| 20260906141517 | 87 | 139 | 0.0 | 1.0 | 0.00 | 0.00 | 0.00 | 75 | 1016.1 |
| 20260906140517 | 86 | 148 | 0.0 | 2.0 | 0.00 | 0.00 | 0.00 | 77 | 1016.1 |
| 20260906135517 | 84 | 128 | 0.0 | 3.0 | 0.00 | 0.00 | 0.00 | 79 | 1016.0 |
| 20260906134517 | 83 | 128 | 0.0 | 1.0 | 0.00 | 0.00 | 0.00 | 81 | 1015.9 |
| 20260906133517 | 81 | 144 | 0.0 | 2.0 | 0.00 | 0.00 | 0.00 | 83 | 1015.8 |
| 20260906132517 | 81 | 121 | 0.0 | 3.0 | 0.00 | 0.00 | 0.00 | 84 | 1015.8 |
| 20260906131517 | 80 | 122 | 1.0 | 3.0 | 0.00 | 0.00 | 0.00 | 84 | 1015.6 |
| 20260906130537 | 79 | 124 | 0.0 | 3.0 | 0.00 | 0.00 | 0.00 | 86 | 1015.5 |
| 20260906125517 | 78 | 121 | 0.0 | 2.0 | 0.00 | 0.00 | 0.00 | 88 | 1015.5 |
| 20260906124517 | 77 | 0.0 | 0.0 | 0.00 | 0.00 | 0.00 | 89 | 1015.4 | |
| 20260906121035 | 76 | 0.0 | 1.0 | 0.00 | 0.00 | 0.00 | 90 | 1015.1 | |
| 20260906120015 | 76 | 0.0 | 0.0 | 0.00 | 0.00 | 0.00 | 90 | 1015.1 | |
| 20260906115015 | 76 | 0.0 | 0.0 | 0.00 | 0.00 | 0.00 | 90 | 1015.0 | |
| 20260906114015 | 76 | 0.0 | 0.0 | 0.00 | 0.00 | 0.00 | 90 | 1014.8 | |
| 20260906113035 | 76 | 0.0 | 0.0 | 0.00 | 0.00 | 0.00 | 90 | 1014.8 | |
| 20260906112035 | 76 | 0.0 | 0.0 | 0.00 | 0.00 | 0.00 | 90 | 1014.7 | |
| 20260906111015 | 76 | 0.0 | 0.0 | 0.00 | 0.00 | 0.00 | 89 | 1014.7 | |
| 20260906110015 | 76 | 0.0 | 0.0 | 0.00 | 0.00 | 0.00 | 89 | 1014.6 | |
| 20260906105015 | 76 | 0.0 | 0.0 | 0.00 | 0.00 | 0.00 | 89 | 1014.5 | |
| 20260906104015 | 76 | 0.0 | 0.0 | 0.00 | 0.00 | 0.00 | 89 | 1014.4 | |
| 20260906103015 | 76 | 0.0 | 0.0 | 0.00 | 0.00 | 0.00 | 88 | 1014.3 | |
| 20260906102015 | 76 | 0.0 | 0.0 | 0.00 | 0.00 | 0.00 | 88 | 1014.2 | |
| 20260906101015 | 77 | 0.0 | 0.0 | 0.00 | 0.00 | 0.00 | 88 | 1014.1 | |
| 20260906100015 | 77 | 0.0 | 0.0 | 0.00 | 0.00 | 0.00 | 88 | 1013.9 | |
| 20260906095015 | 77 | 0.0 | 0.0 | 0.00 | 0.00 | 0.00 | 88 | 1014.0 | |
| 20260906094035 | 77 | 0.0 | 0.0 | 0.00 | 0.00 | 0.00 | 87 | 1013.9 | |
| 20260906093015 | 77 | 0.0 | 0.0 | 0.00 | 0.00 | 0.00 | 87 | 1014.0 | |
| 20260906092015 | 77 | 0.0 | 0.0 | 0.00 | 0.00 | 0.00 | 86 | 1013.8 | |
| 20260906091016 | 77 | 0.0 | 0.0 | 0.00 | 0.00 | 0.00 | 86 | 1013.8 | |
| 20260906090015 | 77 | 0.0 | 0.0 | 0.00 | 0.00 | 0.00 | 86 | 1013.8 | |
| 20260906085015 | 78 | 0.0 | 0.0 | 0.00 | 0.00 | 0.00 | 86 | 1013.8 | |
| 20260906084015 | 78 | 0.0 | 0.0 | 0.00 | 0.00 | 0.00 | 86 | 1013.8 | |
| 20260906083015 | 78 | 0.0 | 0.0 | 0.00 | 0.00 | 0.00 | 86 | 1013.8 | |
| 20260906082015 | 78 | 0.0 | 0.0 | 0.00 | 0.00 | 0.00 | 86 | 1013.9 | |
| 20260906081015 | 78 | 0.0 | 0.0 | 0.00 | 0.00 | 0.00 | 85 | 1013.8 | |
| 20260906080015 | 78 | 0.0 | 0.0 | 0.00 | 0.00 | 0.00 | 85 | 1013.9 | |
| 20260906075018 | 78 | 0.0 | 0.0 | 0.00 | 0.00 | 0.00 | 84 | 1014.0 | |
| 20260906074017 | 79 | 0.0 | 0.0 | 0.00 | 0.00 | 0.00 | 84 | 1014.0 | |
| 20260906073038 | 79 | 0.0 | 0.0 | 0.00 | 0.00 | 0.00 | 83 | 1014.2 | |
| 20260906072018 | 79 | 143 | 0.0 | 1.0 | 0.00 | 0.00 | 0.00 | 83 | 1014.2 |
| 20260906071017 | 79 | 142 | 0.0 | 1.0 | 0.00 | 0.00 | 0.00 | 82 | 1014.4 |
| 20260906070016 | 80 | 0.0 | 0.0 | 0.00 | 0.00 | 0.00 | 82 | 1014.4 | |
| 20260906065017 | 80 | 139 | 0.0 | 1.0 | 0.00 | 0.00 | 0.00 | 82 | 1014.4 |
| 20260906064018 | 81 | 0.0 | 1.0 | 0.00 | 0.00 | 0.00 | 81 | 1014.5 | |
| 20260906063018 | 81 | 0.0 | 1.0 | 0.00 | 0.00 | 0.00 | 80 | 1014.7 | |
| 20260906062017 | 81 | 147 | 0.0 | 0.0 | 0.00 | 0.00 | 0.00 | 80 | 1014.8 |
| 20260906061018 | 81 | 141 | 0.0 | 1.0 | 0.00 | 0.00 | 0.00 | 80 | 1014.8 |
| 20260906060016 | 82 | 0.0 | 1.0 | 0.00 | 0.00 | 0.00 | 80 | 1014.8 | |
| 20260906055018 | 82 | 142 | 0.0 | 1.0 | 0.00 | 0.00 | 0.00 | 80 | 1014.6 |
| 20260906054017 | 81 | 0.0 | 0.0 | 0.00 | 0.00 | 0.00 | 80 | 1014.6 | |
| 20260906053017 | 82 | 0.0 | 0.0 | 0.00 | 0.00 | 0.00 | 79 | 1014.4 | |
| 20260906052038 | 82 | 125 | 0.0 | 1.0 | 0.00 | 0.00 | 0.00 | 80 | 1014.5 |
| 20260906051037 | 82 | 0.0 | 0.0 | 0.00 | 0.00 | 0.00 | 79 | 1014.5 | |
| 20260906050037 | 82 | 121 | 0.0 | 1.0 | 0.00 | 0.00 | 0.00 | 78 | 1014.7 |
| 20260906045017 | 82 | 0.0 | 0.0 | 0.00 | 0.00 | 0.00 | 78 | 1014.7 | |
| 20260906044018 | 83 | 0.0 | 0.0 | 0.00 | 0.00 | 0.00 | 77 | 1014.6 | |
| 20260906043017 | 83 | 129 | 0.0 | 1.0 | 0.00 | 0.00 | 0.00 | 76 | 1014.4 |
| 20260906042018 | 84 | 0.0 | 1.0 | 0.00 | 0.00 | 0.00 | 76 | 1014.3 | |
| 20260906041017 | 84 | 157 | 0.0 | 1.0 | 0.00 | 0.00 | 0.00 | 75 | 1014.4 |
| 20260906040017 | 84 | 155 | 0.0 | 1.0 | 0.00 | 0.00 | 0.00 | 74 | 1014.4 |
| 20260906035037 | 85 | 119 | 0.0 | 1.0 | 0.00 | 0.00 | 0.00 | 73 | 1014.5 |
| 20260906034017 | 85 | 0.0 | 2.0 | 0.00 | 0.00 | 0.00 | 72 | 1014.6 | |
| 20260906033018 | 86 | 124 | 0.0 | 3.0 | 0.00 | 0.00 | 0.00 | 71 | 1014.6 |
| 20260906032016 | 86 | 111 | 2.0 | 9.0 | 0.00 | 0.00 | 0.00 | 70 | 1014.7 |
| 20260906031017 | 87 | 107 | 2.0 | 7.0 | 0.00 | 0.00 | 0.00 | 69 | 1014.5 |
| 20260906030017 | 87 | 126 | 1.0 | 7.0 | 0.00 | 0.00 | 0.00 | 67 | 1014.3 |
| 20260906025158 | 87 | 115 | 0.0 | 4.0 | 0.00 | 0.00 | 0.00 | 65 | 1014.1 |
| 20260906024017 | 87 | 112 | 0.0 | 3.0 | 0.00 | 0.00 | 0.00 | 64 | 1014.1 |
| 20260906023018 | 87 | 113 | 1.0 | 8.0 | 0.00 | 0.00 | 0.00 | 63 | 1013.9 |
| 20260906022017 | 88 | 98 | 0.0 | 3.0 | 0.00 | 0.00 | 0.00 | 63 | 1013.7 |
| 20260906021057 | 88 | 0.0 | 0.0 | 0.00 | 0.00 | 0.00 | 62 | 1013.6 | |
| 20260906020017 | 89 | 113 | 0.0 | 5.0 | 0.00 | 0.00 | 0.00 | 61 | 1013.4 |
| 20260906015037 | 89 | 105 | 0.0 | 2.0 | 0.00 | 0.00 | 0.00 | 60 | 1013.3 |
| 20260906014017 | 90 | 111 | 2.0 | 5.0 | 0.00 | 0.00 | 0.00 | 59 | 1013.1 |
| 20260906013036 | 90 | 128 | 0.0 | 4.0 | 0.00 | 0.00 | 0.00 | 58 | 1013.0 |
| 20260906012017 | 91 | 148 | 0.0 | 2.0 | 0.00 | 0.00 | 0.00 | 58 | 1012.8 |
| 20260906011017 | 91 | 146 | 0.0 | 5.0 | 0.00 | 0.00 | 0.00 | 57 | 1012.6 |
| 20260906010017 | 92 | 113 | 0.0 | 4.0 | 0.00 | 0.00 | 0.00 | 56 | 1012.6 |
| 20260906005017 | 93 | 132 | 1.0 | 7.0 | 0.00 | 0.00 | 0.00 | 55 | 1012.6 |
| 20260906004017 | 94 | 110 | 2.0 | 11.0 | 0.00 | 0.00 | 0.00 | 53 | 1012.6 |
| 20260906003017 | 94 | 110 | 3.0 | 11.0 | 0.00 | 0.00 | 0.00 | 52 | 1012.6 |
| 20260906002017 | 95 | 111 | 4.0 | 15.0 | 0.00 | 0.00 | 0.00 | 51 | 1012.5 |
| 20260906001017 | 96 | 112 | 4.0 | 14.0 | 0.00 | 0.00 | 0.00 | 49 | 1012.3 |
| 20260906000017 | 98 | 109 | 7.0 | 16.0 | 0.00 | 0.00 | 0.00 | 47 | 1012.3 |
| 20260905235017 | 100 | 144 | 1.0 | 5.0 | 0.00 | 0.00 | 0.00 | 43 | 1012.2 |
| 20260905234017 | 100 | 145 | 1.0 | 5.0 | 0.00 | 0.00 | 0.00 | 43 | 1012.1 |
| 20260905233017 | 99 | 144 | 1.0 | 7.0 | 0.00 | 0.00 | 0.00 | 43 | 1012.2 |
| 20260905232017 | 99 | 103 | 1.0 | 7.0 | 0.00 | 0.00 | 0.00 | 43 | 1012.2 |
| 20260905231017 | 99 | 141 | 1.0 | 7.0 | 0.00 | 0.00 | 0.00 | 43 | 1012.3 |